Weather Roundup
Issued by NWS

Home | Current Version | Previous Version | Text Only | Print | Product List | Glossary On
Versions: 1 2 3 4 5 6 7 8 9 10 11 12 13 14 15 16 17 18 19 20 21 22 23 24 25 26 27 28 29 30 31 32 33 34 35 36 37 38 39 40 41 42 43 44 45 46 47 48 49 50
000
NZUS93 KARX 311559
HRRWXR

CURRENT HOURLY OBSERVATIONS ACROSS
MUCH OF THE UPPER MISSISSIPPI VALLEY
NATIONAL WEATHER SERVICE LA CROSSE WI
1100 AM CDT MON AUG 31 2015


...SOUTHEAST MINNESOTA...


CITY           SKY/WX    TMP DP  RH WIND       PRES   REMARKS
ROCHESTER      SUNNY     74  69  85 S14       30.01S
ROCHESTER/MAYO FAIR      74  71  91 SE6       30.00S
WINONA         CLOUDY    73  68  83 CALM      30.01S
AUSTIN         SUNNY     73  70  88 S12       30.00R
ALBERT LEA     SUNNY     75  70  83 S6        29.98S
DODGE CENTER   MOSUNNY   73  70  88 S12       29.99F
PRESTON        MOSUNNY   73  67  82 S10       30.02F
OWATONNA       SUNNY     73  68  83 S12G18    29.97S
FARIBAULT      PTSUNNY   73  70  88 S14       29.96F
$$

...ELSEWHERE IN MINNESOTA...


CITY           SKY/WX    TMP DP  RH WIND       PRES   REMARKS
MINNEAPOLIS    PTSUNNY   76  68  76 S13       29.94S
INTNL FALLS    NOT AVBL
DULUTH         MOSUNNY   72  63  73 S16       29.90R
RED WING       CLOUDY    73  68  83 S3        29.97S
REDWOOD FALLS  SUNNY     75  68  78 S15G24    29.89S
MANKATO        CLOUDY    72  68  88 S8        29.95S
WORTHINGTON    CLOUDY    72  66  83 S17G24    29.95R
FAIRMONT       MOSUNNY   73  66  78 S14       29.95S
$$

...SOUTHWEST WISCONSIN...


CITY           SKY/WX    TMP DP  RH WIND       PRES   REMARKS
LA CROSSE      CLOUDY    71  66  84 S8        30.02S
PRAIRIE DU CHI SUNNY     72  67  82 CALM      30.03F
BOSCOBEL       SUNNY     75  68  78 CALM      30.04F
LONE ROCK      NOT AVBL
PLATTEVILLE    SUNNY     73  71  92 S7        30.07S
FORT MC COY    CLOUDY    70  65  86 S6        30.05R
CAMP DOUGLAS   CLOUDY    72  72 100 S6        30.04S
VIROQUA          N/A     71  71  99 S6        30.06R
WIS DELLS      CLOUDY    73  65  77 SW7       30.06S
$$

...ELSEWHERE IN WISCONSIN...


CITY           SKY/WX    TMP DP  RH WIND       PRES   REMARKS
MILWAUKEE      CLOUDY    73  65  75 W7        30.08S
MADISON        PTSUNNY   73  66  78 S8        30.06S
GREEN BAY      CLOUDY    71  66  84 W8        30.05R
EAU CLAIRE     CLOUDY    71  66  84 S8        29.99S
BLACK RVR FLS  CLOUDY    69  69  98 SW6       30.03R FOG
MEDFORD        CLOUDY    65  65 100 SW6       30.04S FOG
WAUSAU         CLOUDY    67  64  90 S5        30.03S FOG
WIS RAPIDS     CLOUDY    70  66  87 SW5       30.06R
MARSHFIELD     CLOUDY    68  64  87 SW8       30.05R FOG
RICE LAKE      CLOUDY    68  65  90 S8        30.00S FOG
$$

...NORTHEAST IOWA...


CITY           SKY/WX    TMP DP  RH WIND       PRES   REMARKS
DECORAH        SUNNY     73  70  88 VRB7      30.03R
MASON CITY     SUNNY     75  70  84 S10       30.01S
CHARLES CITY   MOSUNNY   73  73 100 S8        30.03S
OELWEIN        SUNNY     73  70  88 S7        30.04S
$$

...ELSEWHERE IN IOWA...


CITY           SKY/WX    TMP DP  RH WIND       PRES   REMARKS
DES MOINES     MOSUNNY   80  71  74 S8        30.00R
IOWA CITY      SUNNY     79  71  76 SE8       30.04S
FORT DODGE     SUNNY     77  70  78 S8        30.00S
$$

...NORTHERN ILLINOIS...


CITY           SKY/WX    TMP DP  RH WIND       PRES   REMARKS
CHICAGO-OHARE  SUNNY     78  67  68 CALM      30.08S
CHICAGO-MIDWAY SUNNY     80  67  64 CALM      30.08S
MOLINE         SUNNY     81  71  71 SE3       30.05R
ROCKFORD       SUNNY     78  68  71 S5        30.09S
PEORIA         SUNNY     84  71  65 SE6       30.07S
$$

NOTE: "FAIR" INDICATES FEW OR NO CLOUDS BELOW 12,000 FEET WITH NO
SIGNIFICANT WEATHER AND/OR OBSTRUCTIONS TO VISIBILITY. WIND
SPEEDS ARE IN MILES-PER-HOUR.



USA.gov is the U.S. government's official web portal to all federal, state and local government web resources and services.